Estación de Cabildo

Ultimos registro cada 15 minutos 58
Estación Fecha / Hora Temperatura Humedad Lluvia Velocidad Dirección Radiación Presion
58 Cabildo 02-09-2026 14:15 19,9 61 0 0 249 429 1016,8
57 Cabildo 02-09-2026 14:00 19,8 62 0 0 252 343 1016,8
56 Cabildo 02-09-2026 13:45 19,6 64 0 0 259 348 1016,9
55 Cabildo 02-09-2026 13:30 19,3 66 0 0 278 461 1017,2
54 Cabildo 02-09-2026 13:15 19,1 63 0 0 253 381 1017,2
53 Cabildo 02-09-2026 13:00 18,9 67 0 0 257 360 1017,3
52 Cabildo 02-09-2026 12:45 18,8 67 0 0 248 366 1017,4
51 Cabildo 02-09-2026 12:30 18,6 65 0 0 254 380 1017,6
50 Cabildo 02-09-2026 12:15 18,2 69 0 0 238 341 1017,4
49 Cabildo 02-09-2026 12:00 17,8 70 0 0 247 325 1017,4
48 Cabildo 02-09-2026 11:45 17,6 69 0 0 259 294 1017,5
47 Cabildo 02-09-2026 11:30 17,3 71 0 0 267 316 1017,5
46 Cabildo 02-09-2026 11:15 16,9 70 0 0 251 290 1017,5
45 Cabildo 02-09-2026 11:00 16,6 72 0 0 251 279 1017,5
44 Cabildo 02-09-2026 10:45 16,7 76 0 0 244 272 1017,3
43 Cabildo 02-09-2026 10:30 16,8 72 0 0 257 253 1017,2
42 Cabildo 02-09-2026 10:15 16,5 70 0 0 272 253 1017
41 Cabildo 02-09-2026 10:00 16,3 70 0 0 274 241 1017,1
40 Cabildo 02-09-2026 09:45 16,3 71 0 0 274 271 1017,3
39 Cabildo 02-09-2026 09:30 15,9 69 0 0 77 236 1017,4
38 Cabildo 02-09-2026 09:15 15,5 73 0 0 78 427 1017,4
37 Cabildo 02-09-2026 09:00 14,7 76 0 0 78 202 1017,6
36 Cabildo 02-09-2026 08:45 13,8 80 0 0 78 295 1017,7
35 Cabildo 02-09-2026 08:30 12,8 84 0 0 78 174 1017,6
34 Cabildo 02-09-2026 08:15 12,1 86 0 0 79 105 1017,2
33 Cabildo 02-09-2026 08:00 11,4 87 0 0 95 95 1017,1
32 Cabildo 02-09-2026 07:45 11,3 89 0 0 95 65 1016,6
31 Cabildo 02-09-2026 07:30 11,1 88 0 0 94 44 1016,3
30 Cabildo 02-09-2026 07:15 11,1 87 0 0 94 21 1016,1
29 Cabildo 02-09-2026 07:00 11,6 85 0 0 95 5 1016,1
28 Cabildo 02-09-2026 06:45 12,1 84 0 0 95 0 1015,8
27 Cabildo 02-09-2026 06:30 12,7 81 0 0 95 0 1015,9
26 Cabildo 02-09-2026 06:15 13,4 77 0 0 87 0 1015,8
25 Cabildo 02-09-2026 06:00 13,7 76 0 0 33 0 1016
24 Cabildo 02-09-2026 05:45 13,5 78 0 1,3 82 0 1015,8
23 Cabildo 02-09-2026 05:30 13,7 78 0 0 93 0 1015,8
22 Cabildo 02-09-2026 05:15 13,3 80 0 0,4 87 0 1015,9
21 Cabildo 02-09-2026 05:00 13,1 82 0 0 93 0 1016,3
20 Cabildo 02-09-2026 04:45 12,9 83 0 0 97 0 1016,3
19 Cabildo 02-09-2026 04:30 12,9 83 0 0 103 0 1016,5
18 Cabildo 02-09-2026 04:15 12,9 84 0 0 63 0 1016,8
17 Cabildo 02-09-2026 04:00 12,7 85 0 0 68 0 1016,8
16 Cabildo 02-09-2026 03:45 12,7 85 0 0 97 0 1016,9
15 Cabildo 02-09-2026 03:30 12,4 86 0 0 66 0 1016,9
14 Cabildo 02-09-2026 03:15 12,3 88 0 0 66 0 1017,2
13 Cabildo 02-09-2026 03:00 12,2 88 0 0 58 0 1017,2
12 Cabildo 02-09-2026 02:45 12,3 88 0 0 41 0 1017,1
11 Cabildo 02-09-2026 02:30 12,1 87 0 0 322 0 1017,1
10 Cabildo 02-09-2026 02:15 11,9 89 0 0 320 0 1017,1
9 Cabildo 02-09-2026 02:00 11,9 87 0 0 289 0 1016,8
8 Cabildo 02-09-2026 01:45 12,4 85 0 0 289 0 1016,6
7 Cabildo 02-09-2026 01:30 13,3 83 0 0 289 0 1016,6
6 Cabildo 02-09-2026 01:15 14,2 81 0 0 289 0 1016,3
5 Cabildo 02-09-2026 01:00 15,1 77 0 0 289 0 1016,6
4 Cabildo 02-09-2026 00:45 14,9 78 0 0,4 54 0 1016,3
3 Cabildo 02-09-2026 00:30 15,2 78 0 0 64 0 1016,4
2 Cabildo 02-09-2026 00:15 15,4 78 0 0 73 0 1016,7
1 Cabildo 02-09-2026 00:00 15,7 77 0 0 41 0 1016,8